Location: Krasnoyarskiy Pitomnik
(51.1333°N, 71.6167°E)
Time: 23:50:07
(UTC+00:00)

NOSS 2-2 (C) - Pass Details

Date: 29 May 2022
Orbit: 439 x 1763 km, 63.3° (Epoch: 02 June)

Event Time Altitude Azimuth Distance (km) Brightness Sun altitude
Rises 16:33:16 0° 314° (NW) 2,687 8.9 -9.4°
Reaches altitude 10° 16:35:31 10° 328° (NNW) 1,920 7.7 -9.6°
Maximum altitude 16:39:10 26° 27° (NNE) 1,362 5.6 -9.9°
Drops below altitude 10° 16:43:48 10° 83° (E) 2,492 6.4 -10.3°
Sets 16:47:09 0° 95° (E) 3,688 7.2 -10.6°
